User: anonymous
Location: Unspecified
(0.0000°N, 0.0000°E)
Time: 20:18:03
(UTC+02:00)
Language:

ARIANE DEB (SPELDA) - Orbit

View from above orbital plane
View from above orbital plane
View from above satellite
View from above satellite

Ground track
Ground track

The orbit data is extracted from the following two-line orbital elements,

1 27402U 02015D   14271.08173796  .00002245  00000-0  22797-2 0   790
2 27402 003.3906 208.0963 7107000 153.3582 352.4401 02.45778749109448
Epoch (UTC): 28 September 2014 01:57:42
Eccentricity: 0.7107000
inclination: 3.3906°
perigee height: 332 km
apogee height: 33299 km
right ascension of ascending node: 208.0963°
argument of perigee: 153.3582°
revolutions per day: 2.45778749
mean anomaly at epoch: 352.4401°
orbit number at epoch: 10944

The dashed part of the orbit path shows where the satellite is in the earth's shadow,  

DLR